www.pogodaiklimat.ru

Погода и климат >> Архив погоды >> Россия >> Амурская область >> Поярково


ПОГОДА в Поярково

  • Прогноз погоды в Поярково
  • Монитор погоды в Поярково

АРХИВ ПОГОДЫ в Поярково

Время (UTC), дата Ветер
(напр.,м/с)
 
Видим.   Явления Облачность Т
(С)
Тd
(С)
f
(%)
Тe
(С)
Тes
(С)
Комфортность P
(гПа)
Po
(гПа)
Тmin
(С)
Tmax
(С)
R
(мм)
R24
(мм)
S
(см)
09 10.07 В 1 20 км 10/3 600 м
[Cb cap Ac As Ci fib]
+28.1 +20.8 65 +35 +36 очень
душно
1006.9 994.0
12 10.07 С 1 20 км 10/4 1000 м
[Sc diur, vesp Ac As Ci fib]
+24.6 +21.1 81 +31 +31 очень
душно
1007.8 994.8 +31.0 0.0
15 10.07 ЮЗ 1 н/о 6/0
[Ac trans Ci fib]
+20.6 +17.5 82 +25 +25 комфорт 1008.4 995.1
18 10.07 В 1 н/о в посл. час гроза {ливн. осадки} 10/6 600 м
[Cb cap Ac cuf Ci fib]
+19.2 +17.6 90 +22 +22 комфорт 1008.7 995.4
21 10.07 ЮВ 2 20 км 10/3 1000 м
[Sc diur, vesp Ac cast Ci fib]
+19.8 +18.3 91 +23 +24 комфорт 1008.6 995.3
00 11.07 ЮВ 1 20 км 3/0
[Ci fib]
+24.9 +20.1 75 +31 +41 очень
душно
1007.5 994.5 +18.7 2
03 11.07 ЮВ 1 20 км 10/4 600 м
[Cb calv Cs]
+28.6 +20.6 62 +35 +45 очень
душно
1006.4 993.6
06 11.07 З 1 20 км гроза без осадков 10/10 600 м
[Cb cap]
+25.4 +21.5 79 +32 +32 очень
душно
1005.0 992.0
09 11.07 СВ 2 20 км в посл. час гроза 10/5 600 м
[Cb cap Ac cuf Ci ing]
+23.5 +18.0 71 +28 +28 душно 1004.8 991.7
12 11.07 СВ 2 20 км {гроза} 10/3 1000 м
[Sc diur, vesp Ac cuf Ci ing]
+20.8 +17.4 81 +25 +25 комфорт 1005.1 991.9 +28.7
15 11.07 штиль 0 н/о 10/0
[Ac trans Ci fib]
+18.5 +16.1 86 +19 +19 1004.4 991.1
18 11.07 СВ 1 н/о 10/0
[Ci fib]
+17.2 +15.5 90 +18 +18 1004.2 990.8
21 11.07 В 1 500 м туман ?/? +16.8 +15.5 92 +18 +18 1004.1 990.7
00 12.07 ЮВ 1 500 м туман ?/? +20.5 +17.5 83 +25 +25 комфорт 1004.2 991.0 +16.1
03 12.07 Ю 1 20 км {туман} 10/1 1000 м
[Cu hum Ac lent Ci]
+26.7 +16.2 53 +30 +39 душно 1003.3 990.4
06 12.07 ЮВ 2 20 км {туман} 10/0
[Ci]
+28.1 +11.4 35 +29 +39 жарко 1001.4 988.6
09 12.07 В 1 20 км 3/0
[Ci fib]
+26.8 +15.5 50 +30 +33 душно 1000.9 988.0
12 12.07 СВ 1 20 км 4/3 600 м
[Cb cap Ci fib]
+19.0 +17.2 89 +22 +22 комфорт 1002.5 989.2 +28.7
15 12.07 СВ 1 н/о 6/3 600 м
[Cb cap Ci fib]
+19.1 +15.4 79 +22 +22 комфорт 1002.7 989.5
18 12.07 В 1 н/о 3/0
[Ci fib]
+15.6 +14.3 92 +16 +16 1003.3 989.9
21 12.07 штиль 0 20 км 10/0
[Ac lent Ci fib]
+17.2 +16.1 93 +17 +18 1003.8 990.5
00 13.07 Ю 1 20 км 8/0
[Ac trans]
+23.3 +16.9 67 +28 +34 душно 1004.3 991.2 +14.0
03 13.07 ЮВ 3 20 км 8/1 1000 м
[Cu hum Ac cast Ci sp]
+27.1 +17.3 55 +31 +39 душно 1003.6 990.7
06 13.07 ЮВ 2 20 км 8/4 1000 м
[Cu hum Ci fib]
+28.6 +16.7 49 +32 +39 душно 1002.0 989.2
09 13.07 ЮВ 2 20 км 10/1 1000 м
[Cu hum Ci]
+27.8 +17.6 54 +32 +34 душно 1001.2 988.4
12 13.07 В 1 20 км 10/0
[Ac lent Ci]
+21.4 +18.2 82 +26 +26 душно 1002.8 989.7 +29.0
15 13.07 В 1 н/о 10/3 600 м
[Cb calv Ac cast Ci fib]
+19.9 +17.4 86 +24 +24 комфорт 1003.0 989.8
18 13.07 В 1 н/о 8/0
[Ac lent Ci fib]
+17.6 +16.3 92 +19 +19 1003.7 990.4
21 13.07 ЮВ 1 20 км 6/0
[Ac lent Ci fib]
+18.7 +17.5 93 +21 +22 комфорт 1004.5 991.3
00 14.07 Ю 1 20 км 8/0
[Cc]
+23.8 +17.8 69 +28 +37 душно 1004.7 991.6 +16.7
03 14.07 ЮВ 1 20 км 10/3 600 м
[Cb cap Ci]
+27.1 +19.2 62 +33 +44 очень
душно
1004.0 991.1
06 14.07 СЗ 1 20 км гроза без осадков {ливн. осадки} 10/8 600 м
[Cb cap Ci ing]
+22.3 +17.6 75 +27 +29 душно 1004.4 991.3
09 14.07 В 2 20 км в посл. час гроза 10/4 600 м
[Cb cap Ci fib]
+24.2 +18.7 71 +29 +30 душно 1004.6 991.6
12 14.07 ЮВ 1 20 км {гроза} 10/6 600 м
[Cb cap Ac cuf Ci fib]
+20.8 +18.1 85 +26 +26 душно 1005.8 992.6 +28.0 0.4
15 14.07 В 2 н/о 6/0
[Ac trans]
+19.0 +17.4 90 +21 +21 комфорт 1006.1 992.8
18 14.07 ЮВ 1 н/о 10/8 1000 м
[Sc Ci fib]
+18.9 +17.5 92 +21 +21 комфорт 1006.8 993.5
21 14.07 ЮВ 2 20 км 9/9 1000 м
[Sc diur, vesp]
+19.2 +17.7 91 +22 +22 комфорт 1007.5 994.3
00 15.07 ЮВ 2 20 км 10/3 1000 м
[Sc Ac cast Ci fib]
+23.1 +18.6 76 +29 +32 очень
душно
1007.7 994.6 +18.3
03 15.07 ЮВ 2 20 км 10/4 600 м
[Cb cap Ac trans Ci fib]
+26.3 +18.8 63 +31 +36 душно 1007.3 994.3
06 15.07 ЮВ 2 20 км в посл. час гроза 10/8 600 м
[Cb cap Ci fib]
+24.7 +18.0 66 +29 +31 душно 1006.6 993.6
09 15.07 ЮВ 3 20 км гроза без осадков 9/4 600 м
[Cb calv Ac cuf]
+25.5 +18.9 67 +30 +31 душно 1006.4 993.4
12 15.07 В 1 20 км {гроза, ливн. осадки} 10/8 600 м
[Cb cap Ci ing]
+21.5 +19.2 87 +26 +26 душно 1007.4 994.2 +28.0 0.0
15 15.07 В 2 н/о 9/9 600 м
[Cb cap]
+20.3 +18.1 87 +24 +24 комфорт 1007.7 994.4
18 15.07 ЮВ 3 н/о 10/10 1000 м
[Sc diur, vesp]
+20.2 +18.1 88 +24 +24 комфорт 1007.4 994.1
21 15.07 В 2 20 км в посл. час ливневой дождь 10/10 600 м
[Cb cap]
+19.7 +18.2 91 +23 +23 комфорт 1007.5 994.2
00 16.07 штиль 0 10 км гроза без осадков {ливн. осадки} 10/8 600 м
[Cb cap Ac cuf]
+20.6 +19.2 92 +24 +25 комфорт 1008.2 995.0 +19.7 5
03 16.07 ЮВ 1 10 км гроза, ливневой дождь 10/10 600 м
[Cb cap]
+21.4 +19.6 89 +26 +26 душно 1007.2 994.1
06 16.07 ЮВ 3 20 км {гроза, ливн. осадки} 10/8 600 м
[Cb cap Ac cuf Ci ing]
+25.0 +19.7 72 +30 +31 душно 1005.6 992.6
09 16.07 В 1 10 км гроза, ливневой дождь 10/10 600 м
[Cb cap]
+22.3 +20.6 90 +29 +29 очень
душно
1004.9 991.8
12 16.07 С 1 10 км гроза, ливневой дождь 10/10 600 м
[Cb cap]
+20.0 +18.4 91 +24 +24 комфорт 1005.1 991.9 +25.2 8
15 16.07 В 2 н/о гроза, ливневой дождь 10/10 600 м
[Cb cap]
+18.9 +17.7 93 +21 +21 комфорт 1005.5 992.2
18 16.07 В 1 н/о {гроза, ливн. осадки} 8/8 600 м
[Cb cap]
+18.4 +17.2 93 +20 +20 1004.2 990.9
21 16.07 В 2 10 км 10/10 600 м
[Cb cap]
+19.4 +18.2 93 +22 +22 комфорт 1003.7 990.5
00 17.07 В 1 10 км 10/8 600 м
[Cb cap Ac cuf Ci fib]
+20.6 +19.1 91 +26 +27 душно 1003.8 990.7 +18.3 12
03 17.07 СВ 3 20 км 10/8 600 м
[Cb calv Ci fib]
+23.6 +19.0 75 +28 +31 душно 1003.5 990.5
06 17.07 ЮВ 2 20 км 9/6 600 м
[Cb calv Ac cuf]
+25.1 +19.0 69 +30 +32 душно 1002.3 989.4

 

Местоположение метеостанции Поярково (Амурская область, Россия): широта 49.62 долгота 128.60 высота над уровнем моря 115 м.

В архиве по умолчанию представлена погода в Поярково за последнюю неделю. Архивные данные за месяц целиком и за предыдущие месяцы, начиная с января 2011 года, Вы можете получить, выбрав интересующий диапазон дат из раскрывающегося списка и нажав кнопку "Ввод!".


*Определитесь, кто Вы:
робот инопланетянин человек

Внимание! Время в таблицах - всемирное. Для получения местного времени необходимо прибавить поправку, которая равна 9 ч.

Смотрите также архив погоды в соседних городах и на ближайших метеорологических станциях:

Погода в Константиновке (Амурская область, Россия) (50 км)
Погода в Завитае (Амурская область, Россия) (80 км)
Погода в Екатеринославке (Амурская область, Россия) (88 км)
Погода в Суньу (Хэйлунцзян, Китай) (93 км)
Погода в Малиновке (Амурская область, Россия) (95 км)
Погода в Архаре (Амурская область, Россия) (104 км)
Погода в Айгуне (Хэйлунцзян, Китай) (108 км)
Погода в Благовещенске (Амурская область, Россия) (113 км)
Погода в Братолюбовке (Амурская область, Россия) (138 км)
Погода в Белогорске (Амурская область, Россия) (145 км)

Пояснения к столбцам:

Ветер - указаны скорость ветра в м/с - средняя за 10 мин, порывы в срок и между сроками (в фигурных скобках) и направление, откуда дует ветер: С - северный, СВ - северо-восточный, В - восточный, ЮВ - юго-восточный, Ю - южный, ЮЗ - юго-западный, З - западный, СЗ - северо-западный.
Видимость - горизонтальная дальность видимости в метрах или километрах. При видимости от 1 до 10 км при отсутствии осадков обычно наблюдается дымка, при ухудшении видимости до 1 км и менее - туман. В сухую погоду видимость может ухудшаться дымом, пылью или мглою.
Явления - указаны атмосферные явления, наблюдавшиеся в срок или в последний час перед сроком; фигурными скобками обозначены явления, наблюдавшиеся между сроками (за 1-3 часа до срока); квадратными скобками обозначены град или гололедные отложения с указанием их диаметра в мм.
Облачность - указаны через наклонную черту общая и нижняя облачность в баллах и высота нижней границы облаков в метрах; квадратными скобками обозначены формы облаков: Ci - перистые, Cs - перисто-слоистые, Cc - перисто-кучевые, Ac - высококучевые, As - высокослоистые, Sc - слоисто-кучевые, Ns - слоисто-дождевые, Cu - кучевые, Cb - кучево-дождевые. Подробнее классификацию облаков см. в Атласе облаков (PDF).
T - Температура воздуха - температура, измеренная на высоте 2 м над землей.
Td - Температура точки росы - температура, при понижении до которой содержащийся в воздухе водяной пар достигнет насыщения.
f - Относительная влажность воздуха - влажноcть воздуха, измеренная на высоте 2 м над землей.
Te - Эффективная температура - температура, которую ощущает одетый по сезону человек в тени. Характеристика душности погоды. При расчете учитывается влияние влажности воздуха и скорости ветра на теплоощущения человека.
Tes - Эффективная температура на солнце - температура, которую ощущает человек, с поправкой на солнечный нагрев. Характеристика знойности погоды. Зависит от высоты солнца над горизонтом, облачности и скорости ветра. Ночью, в пасмурную погоду, а также при ветре 12 м/с и более поправка равна нулю.
P - Атмосферное давление - приведенное к уровню моря атмосферное давление.
Po - Атмосферное давление - измеренное на уровне метеостанции атмосферное давление.
Tmin - Минимальная температура - минимум температуры воздуха на высоте 2 м над землей.
Tmax - Максимальная температура - максимум температуры воздуха на высоте 2 м над землей.
R - Количество осадков - Количество выпавших осадков за период времени, мм. При наведении курсора мыши на число - период времени, за который выпало указанное количество осадков.
R24 - Количество осадков - Количество выпавших осадков за 24 часа, мм.
S - Снежный покров - Высота снежного покрова, см. При наведении курсора мыши на число - состояние снежного покрова и степень покрытия местности в баллах.